Regional Weather Roundup
Issued by NWS Cleveland, OH

Home | Current Version | Previous Version | Graphics & Text | Print | Product List | Glossary On
Versions: 1 2 3 4 5 6 7 8 9 10 11 12 13 14 15 16 17 18 19 20 21 22 23 24 25 26 27 28 29 30 31 32 33 34 35 36 37 38 39 40 41 42 43 44 45 46 47 48 49 50
000
ASUS41 KCLE 202110
RWRCLE
OHIO REGIONAL WEATHER ROUNDUP
NATIONAL WEATHER SERVICE WILMINGTON, OH
500 PM EDT SUN AUG 20 2017

NOTE: "FAIR" INDICATES FEW OR NO CLOUDS BELOW 12,000 FEET WITH NO
SIGNIFICANT WEATHER AND/OR OBSTRUCTIONS TO VISIBILITY.

OHZ001>008-015>018-024>027-034-035-043-044-202200-
   NORTHWEST OHIO

CITY           SKY/WX    TMP DP  RH WIND       PRES   REMARKS
DEFIANCE       FAIR      84  64  50 CALM      30.04F
FINDLAY        FAIR      87  65  47 E5        30.04F
TOLEDO EXPRESS FAIR      84  65  52 VRB3      30.05F
TOLEDO EXEC    FAIR      85  64  49 SW8       30.06S
LIMA           FAIR      86  67  52 S8        30.05S
$$

OHZ009>014-019>023-028>033-038-089-202200-
   NORTHEAST OHIO

CITY           SKY/WX    TMP DP  RH WIND       PRES   REMARKS
CLE-HOPKINS    PTSUNNY   87  61  41 NE10      30.09F
CLE-LAKEFRONT  FAIR      78  66  66 NE9       30.07F
CUY CO. ARPT   MOSUNNY   84  63  48 N9        30.09F
LORAIN-ELYRIA    N/A    N/A N/A N/A MISG      30.07F
ASHTABULA      FAIR      82  59  45 VRB6      30.12S
AKRON-CANTON   FAIR      86  58  38 S10       30.11F
WOOSTER        FAIR      82  65  56 MISG      30.10F
MANSFIELD      FAIR      84  66  54 S7        30.09F
YOUNGSTOWN     FAIR      83  54  36 S5        30.12S
$$

OHZ042-051>053-060>062-070>072-077>081-202200-
  SOUTHWEST OHIO

CITY           SKY/WX    TMP DP  RH WIND       PRES   REMARKS
CINC-COVINGTON PTSUNNY   87  69  54 SW7       30.06F HX  91
CINC-LUNKEN    FAIR      87  69  54 S8        30.04F HX  91
HAMILTON       FAIR      90  67  46 SW6       30.05F HX  93
DAYTON         PTSUNNY   88  62  41 W10       30.07S
WRIGHT-PAT AFB PTSUNNY   86  66  51 S9        30.05S
DAYTON GENERAL PTSUNNY   86  63  45 SW6       30.05F
WILMINGTON     FAIR      86  69  56 S10       30.06F HX  90
$$

OHZ036-037-039>041-045>050-054>059-063>069-073>076-082>088-202200-
  CENTRAL AND SOUTHEAST OHIO

CITY           SKY/WX    TMP DP  RH WIND       PRES   REMARKS
COLUMBUS       FAIR      88  68  51 S10       30.06F HX  91
OSU AIRPORT    CLOUDY    85  68  56 S8        30.06F
BOLTON FIELD   PTSUNNY   86  70  58 S8        30.07F HX  90
RICKENBACK AFB FAIR      86  70  58 S6        30.06S HX  90
NEWARK         FAIR      85  67  54 SE8       30.06F
MARION         FAIR      86  67  52 S8        30.06F
LANCASTER      FAIR      87  68  52 SE6       30.07F HX  90
ZANESVILLE     FAIR      85  67  54 S6        30.09F
NEW PHILLY     FAIR      83  67  58 SE8       30.11F
$$




USA.gov is the U.S. government's official web portal to all federal, state and local government web resources and services.